sat.trackr.live / text

‹ back to catalog

UNKNOWN

NORAD 85015

UNKNOWN UNKNOWN UNKNOWN

§ Identity

Operator
Country
Launch date
Launch site
Launch vehicle
Mass (kg)
RCS (m²)

External: N2YO · Heavens-Above

§ Orbital elements

Epoch: 2026-05-23T13:25:12.580032Z

Period
98.46 min
Inclination
74.0498°
Eccentricity
0.0015782
Mean motion
14.62489882 rev/d
Perigee alt
674.0 km
Apogee alt
696.3 km
Semi-major
7,063.3 km
B*
6.7394e-5
RAAN
88.4934°
Arg perigee
308.7261°
Mean anomaly
51.2495°
Rev number
66,626

§ Raw data

UNKNOWN1 85015U          26143.55917338  .00000311  00000+0  67394-4 0  99932 85015  74.0498  88.4934 0015782 308.7261  51.2495 14.62489882666263

JSON: /api/v1/satellites/85015 · /tle

For live sub-satellite position, see the globe view (requires WebGL).

§ Visibility from observer

Set your observer location to see the next 7 days of passes ≥ 10°. The values pass through the URL so the page stays shareable.

No JS? Fill the form by hand. The geolocation button needs JavaScript.